Location: Peebles
(55.6412°N, 3.1714°W)
Time: 20:04:35
(UTC+01:00)

Envisat - Pass Details

Date: 29 February 2024
Orbit: 762 x 764 km, 98.3° (Epoch: 21 April)

Event Time Altitude Azimuth Distance (km) Brightness Sun altitude
Rises 02:36:24 0° 22° (NNE) 3,246 7.1 -35.6°
Reaches altitude 10° 02:39:12 10° 38° (NE) 2,314 6.3 -35.3°
Maximum altitude 02:43:12 23° 89° (E) 1,600 5.0 -35.0°
Enters shadow 02:43:18 23° 91° (E) 1,600 4.9 -35.0°
